Wetbulb
66.73 65.50 64.74 64.00 62.02 60.63 60.59 60.23 61.73 61.32 59.86 58.40 57.89 57.80 57.09 57.77 56.96 56.11 54.55 54.45 53.24 53.54
63.70 63.43 62.59 61.64 61.13 60.89 60.04 59.29 58.53 58.16 57.34 57.14 57.05 56.26 55.37 54.63 54.47 54.77 54.02 53.20 52.53 52.28
63.18 62.39 62.27 61.04 59.28 58.33 57.37 56.92 56.01 55.42 55.24 55.59 55.91 54.97 53.55 52.38 52.32 51.29 51.29 52.03 50.73 50.37
61.41 60.95 60.75 59.70 58.37 55.91 55.53 55.66 55.46 54.94 54.65 53.30 52.09 51.34 49.85 49.21 48.96 48.43 48.69 49.05 49.26 49.67
58.78 58.28 57.85 56.03 54.69 54.55 54.20 53.98 53.27 52.20 50.49 49.74 48.25 47.35 47.16 46.61 46.62 45.67 45.70 46.07 46.99 47.87
56.68 56.10 54.65 54.29 54.16 53.36 52.78 49.99 48.47 46.98 45.66 45.09 44.89 44.33 44.40 44.60 44.36 44.22 44.44 44.89 45.59 46.95
55.48 54.93 53.49 53.00 52.53 52.47 49.85 45.98 44.66 44.19 43.56 43.02 42.29 42.47 42.49 42.27 41.31 42.12 43.98 45.36 46.96 49.48
53.69 52.71 52.02 51.64 51.54 51.34 47.91 45.76 44.29 42.50 41.44 40.62 40.44 41.62 41.31 40.80 40.35 41.34 43.55 46.33 47.85 49.94
51.64 51.04 50.52 50.67 50.05 48.86 46.95 44.35 42.13 40.26 39.16 37.84 39.61 41.18 43.34 42.72 40.05 42.84 43.64 44.08 45.79 46.84
50.33 49.87 49.70 49.80 49.18 47.97 45.09 42.67 39.93 38.38 37.53 35.90 36.52 40.26 41.18 42.30 38.99 39.00 39.77 40.85 42.04 43.16
49.22 48.83 48.52 47.74 46.88 46.21 44.95 43.03 40.42 38.03 35.75 34.14 36.71 39.58 39.60 39.16 35.51 35.81 38.49 42.18 42.28 41.44
47.86 46.81 46.65 45.61 44.75 45.08 44.27 42.83 41.85 38.47 34.44 32.23 32.69 38.83 38.65 36.12 34.50 35.18 37.28 39.98 42.38 42.41
46.36 45.70 44.57 44.16 43.59 42.91 42.92 42.27 41.53 37.68 34.89 36.26 31.47 37.23 37.72 36.52 33.23 32.88 33.95 37.70 39.34 41.15
44.22 41.35 38.31 36.16 36.59 41.30 40.95 41.20 38.72 36.18 34.54 32.95 33.02 31.28 36.72 37.01 32.16 32.94 33.37 34.27 36.83 38.28
MSLP
1008.16 1008.85 1009.69 1010.50 1011.34 1012.53 1013.40 1013.90 1014.06 1014.19 1014.40 1014.79 1015.02 1015.30 1015.62 1015.93 1016.05 1015.97 1016.00 1016.31 1016.30 1016.47
1008.54 1009.71 1010.42 1011.46 1012.49 1013.29 1013.64 1013.82 1014.07 1014.46 1015.05 1015.19 1015.71 1015.95 1016.21 1016.21 1016.16 1016.18 1016.18 1016.43 1016.55 1016.57
1008.93 1010.06 1011.13 1012.01 1012.73 1013.47 1013.61 1013.99 1014.65 1015.19 1015.65 1016.13 1016.48 1016.59 1016.50 1016.63 1016.85 1016.77 1016.75 1016.68 1016.75 1016.58
1009.91 1010.78 1011.89 1012.61 1013.37 1013.86 1014.21 1014.65 1015.50 1016.00 1016.47 1017.18 1017.34 1017.23 1017.01 1017.32 1017.39 1017.24 1017.34 1017.09 1016.85 1016.62
1010.51 1011.38 1012.43 1013.46 1014.10 1014.54 1014.99 1015.59 1016.26 1016.89 1017.82 1018.05 1018.10 1017.98 1017.91 1018.03 1017.93 1017.84 1017.66 1017.33 1017.00 1016.45
1011.52 1012.28 1013.37 1014.32 1014.71 1015.16 1015.76 1016.59 1017.34 1018.05 1018.44 1018.78 1019.01 1018.82 1018.58 1018.48 1018.40 1018.20 1017.73 1017.36 1017.02 1016.47
1012.02 1012.97 1013.87 1014.78 1015.56 1016.11 1016.74 1017.41 1018.24 1018.87 1019.22 1019.53 1019.64 1019.41 1019.15 1018.89 1018.70 1018.25 1017.67 1017.24 1016.97 1016.43
1012.92 1013.85 1014.71 1015.61 1016.24 1016.84 1017.56 1018.26 1019.09 1019.69 1020.18 1020.15 1020.01 1019.85 1019.43 1018.98 1018.63 1018.30 1017.86 1017.66 1017.26 1017.07
1013.67 1014.52 1015.52 1016.30 1016.91 1017.68 1018.37 1019.42 1020.02 1020.30 1020.46 1020.49 1020.57 1020.12 1019.55 1019.08 1018.85 1018.53 1018.40 1018.19 1017.65 1017.46
1014.46 1015.35 1016.16 1016.90 1017.79 1018.62 1019.46 1020.16 1020.31 1020.60 1020.78 1020.99 1021.11 1020.74 1019.89 1019.51 1019.29 1019.20 1018.83 1018.46 1018.20 1017.90
1015.31 1016.11 1016.93 1017.84 1018.45 1019.07 1019.70 1020.09 1020.59 1021.13 1021.50 1021.60 1021.42 1020.89 1020.30 1020.02 1019.71 1019.33 1018.94 1018.60 1018.47 1018.29
1016.10 1016.87 1017.67 1018.28 1018.94 1019.55 1019.91 1020.46 1021.07 1021.68 1021.76 1022.02 1021.67 1021.12 1020.81 1020.30 1019.84 1019.62 1019.32 1018.95 1018.60 1018.47
1016.68 1017.46 1018.24 1018.96 1019.43 1019.90 1020.22 1020.84 1021.42 1022.07 1022.32 1022.25 1021.78 1021.52 1021.09 1020.84 1020.41 1020.11 1019.78 1019.21 1018.92 1018.63
1017.66 1018.38 1019.09 1019.61 1020.01 1020.34 1020.73 1021.16 1021.98 1022.52 1022.60 1022.41 1022.20 1021.82 1021.39 1021.13 1020.74 1020.62 1020.36 1019.95 1019.52 1019.19
Wind_Speed
11 7 8 8 8 6 6 5 5 6 5 6 6 5 4 1 2 3 2 1 2 1
12 11 9 10 8 6 6 5 6 7 6 7 6 6 4 4 4 3 3 3 3 1
12 13 11 9 9 7 6 7 7 7 7 6 5 5 7 6 6 6 4 4 5 4
12 13 10 10 8 7 7 7 7 7 8 8 8 7 7 6 6 6 6 5 5 5
13 14 12 9 7 7 8 7 9 12 11 9 9 8 8 6 6 6 5 5 5 5
14 14 11 9 8 8 11 12 12 11 11 10 8 7 6 5 5 5 5 5 6 6
14 12 10 8 9 12 12 13 12 11 10 8 7 7 5 5 5 5 5 6 6 4
13 13 13 12 12 12 13 12 11 10 8 6 7 6 5 5 6 6 7 6 7 6
15 14 13 11 12 12 12 11 10 9 8 7 7 14 14 9 6 6 6 7 7 5
15 14 12 11 12 12 11 9 8 8 8 8 6 14 13 13 5 5 5 6 6 7
14 13 11 11 11 10 8 8 7 8 7 6 7 14 14 12 5 5 5 6 5 5
13 12 11 11 9 7 8 6 7 7 7 6 6 13 14 10 6 7 7 6 6 6
12 11 10 8 7 4 6 6 8 8 6 11 7 13 13 11 4 6 5 6 6 10
12 12 10 8 4 5 6 9 9 7 5 6 7 6 14 14 5 5 5 5 7 7
Wind_Direction
133 124 126 124 118 109 117 129 130 113 102 97 93 76 55 101 127 151 108 44 17 309
115 119 115 111 111 121 125 111 101 98 103 92 96 90 84 64 42 77 46 41 48 60
110 109 107 110 108 112 100 97 100 100 95 96 91 73 63 45 32 54 27 38 26 5
107 105 104 107 103 104 99 95 94 90 73 62 58 49 58 57 33 40 16 10 13 348
101 102 98 101 100 101 103 91 74 78 75 67 59 46 51 45 23 16 0 349 349 340
110 106 106 108 107 97 78 81 75 80 73 63 50 43 32 26 359 344 352 340 338 328
106 106 96 82 79 91 92 89 83 75 74 65 50 34 14 358 352 354 356 341 334 16
95 93 95 92 91 91 90 87 87 84 71 58 46 22 10 12 4 357 2 3 11 51
99 97 96 97 93 91 89 90 93 83 74 51 32 16 26 31 14 10 23 8 356 85
99 96 96 97 98 97 100 104 91 83 71 56 26 17 22 35 26 22 17 16 15 26
99 97 95 97 98 100 103 105 101 87 70 51 30 25 26 25 13 19 15 20 22 8
99 96 96 94 98 107 106 101 95 93 78 55 14 22 20 18 11 16 8 3 4 354
95 93 91 97 105 105 103 100 95 85 72 48 27 13 17 18 357 14 356 351 353 339
80 82 82 74 62 91 94 88 89 92 65 41 25 357 14 17 19 9 352 347 348 342